Torna al catalogo

INTELSAT 5

PAS 5

AttivoComunicazioniGEO
NORAD 24916·PAYLOAD·🇺🇸 United States

Lanciato Aug 28, 1997 da Baikonur Cosmodrome

Loading…

TLE

AggiornatoSource: Space-Track

Epoca: Sep 14, 2026, 13:30 UTC

1 24916U 97046A   26257.56316057  .00000055  00000-0  00000-0 0  9993
2 24916  10.5892  48.3376 0005863 184.6286 196.3735  0.99034536106434

Traccia INTELSAT 5 in tempo reale con AllMySat

Download on the App Store